FW5359 Weather Reports


time (UTC)temp
F
wind
direction
speed
knots
gust
knots
rain 1hr
in
rain 24hr
in
rain mn
in
humidity
%
barometer
mb
20260901023956 83 171 0.9 4.3 0.01 0.01 0.01 75 1016.0
20260901023456 84 175 0.9 3.5 0.01 0.01 0.01 74 1015.9
20260901022959 85 176 2.6 8.7 0.01 0.01 0.01 70 1015.8
20260901022456 88 165 3.5 8.7 0.00 0.00 0.00 66 1015.7
20260901021956 89 195 1.7 8.7 0.00 0.00 0.00 58 1015.7
20260901021728 89 104 1.7 6.1 0.00 0.00 0.00 56 1015.5
20260901020950 89 96 1.7 6.1 0.00 0.00 0.00 56 1015.4
20260901020444 89 92 1.7 7.0 0.00 0.00 0.00 55 1015.3
20260901015938 89 110 1.7 8.7 0.00 0.00 0.00 54 1015.2
20260901015432 89 93 0.9 8.7 0.00 0.00 0.00 53 1015.0
20260901014926 89 65 0.0 0.0 0.00 0.00 0.00 52 1015.0
20260901014420 89 65 0.0 0.0 0.00 0.00 0.00 52 1014.9
20260901013914 89 65 0.0 0.0 0.00 0.00 0.00 52 1014.9
20260901013408 90 65 0.0 1.7 0.00 0.00 0.00 51 1014.9
20260901012902 90 65 0.0 2.6 0.00 0.00 0.00 51 1014.8
20260901012356 90 65 0.0 2.6 0.00 0.00 0.00 51 1014.7
20260901011850 90 65 0.0 2.6 0.00 0.00 0.00 51 1014.7
20260901011343 90 65 0.0 0.9 0.00 0.00 0.00 51 1014.6
20260901010838 91 65 0.0 0.9 0.00 0.00 0.00 51 1014.6
20260901010332 91 65 0.0 1.7 0.00 0.00 0.00 51 1014.6
20260901005826 91 65 0.0 1.7 0.00 0.00 0.00 50 1014.5
20260901005321 92 65 0.0 1.7 0.00 0.00 0.00 50 1014.4
20260901004814 92 65 0.0 1.7 0.00 0.00 0.00 50 1014.4
20260901004307 92 65 0.0 2.6 0.00 0.00 0.00 50 1014.5
20260901003802 92 65 0.9 2.6 0.00 0.00 0.00 49 1014.5
20260901003255 92 64 0.9 2.6 0.00 0.00 0.00 49 1014.5
20260901002750 92 64 0.9 2.6 0.00 0.00 0.00 49 1014.4
20260901002244 92 64 0.9 2.6 0.00 0.00 0.00 49 1014.4
20260901001738 93 63 1.7 5.2 0.00 0.00 0.00 48 1014.3
20260901001232 93 63 1.7 5.2 0.00 0.00 0.00 48 1014.4
20260901000959 93 99 1.7 5.2 0.00 0.00 0.00 47 1014.4
20260901000229 93 86 1.7 6.1 0.00 0.00 0.00 48 1014.3
20260831235959 94 114 1.7 6.1 0.00 0.00 0.00 48 1014.4
20260831235226 94 80 1.7 7.0 0.00 0.00 0.00 47 1014.3
20260831234726 94 129 2.6 10.4 0.00 0.00 0.00 47 1014.3
20260831234226 94 94 2.6 10.4 0.00 0.00 0.00 47 1014.2
20260831233729 95 68 1.7 7.0 0.00 0.00 0.00 47 1014.2
20260831233226 95 105 1.7 7.8 0.00 0.00 0.00 47 1014.2
20260831232226 95 114 1.7 7.0 0.00 0.00 0.00 46 1014.1
20260831231726 95 108 1.7 6.1 0.00 0.00 0.00 46 1014.1
20260831231226 95 166 2.6 7.0 0.00 0.00 0.00 45 1014.1
20260831230724 96 93 1.7 7.0 0.00 0.00 0.00 45 1014.2
20260831230224 96 145 1.7 6.1 0.00 0.00 0.00 45 1014.3
20260831225724 96 159 1.7 6.1 0.00 0.00 0.00 45 1014.4
20260831225222 96 163 2.6 6.1 0.00 0.00 0.00 45 1014.3
20260831224722 96 146 1.7 5.2 0.00 0.00 0.00 45 1014.4
20260831224217 96 119 0.9 4.3 0.00 0.00 0.00 45 1014.3
20260831223717 96 132 0.9 3.5 0.00 0.00 0.00 45 1014.4
20260831223218 95 132 0.9 3.5 0.00 0.00 0.00 45 1014.5
20260831222718 95 133 0.9 7.0 0.00 0.00 0.00 47 1014.5
20260831222218 95 132 1.7 7.0 0.00 0.00 0.00 46 1014.5
20260831221718 96 132 1.7 7.0 0.00 0.00 0.00 45 1014.5
20260831221218 96 113 1.7 7.0 0.00 0.00 0.00 45 1014.5
20260831220717 96 78 1.7 7.0 0.00 0.00 0.00 45 1014.5
20260831220217 96 133 2.6 8.7 0.00 0.00 0.00 45 1014.7
20260831215718 96 161 2.6 8.7 0.00 0.00 0.00 43 1014.9
20260831215215 97 115 1.7 6.1 0.00 0.00 0.00 44 1014.8
20260831214716 97 109 1.7 7.0 0.00 0.00 0.00 44 1015.0
20260831214216 96 182 2.6 7.0 0.00 0.00 0.00 44 1015.0
20260831213946 96 173 2.6 7.0 0.00 0.00 0.00 43 1015.2
20260831213446 96 150 1.7 6.1 0.00 0.00 0.00 43 1015.2
20260831212716 96 167 1.7 9.6 0.00 0.00 0.00 44 1015.3
20260831212447 95 201 1.7 9.6 0.00 0.00 0.00 46 1015.3
20260831211716 95 92 1.7 7.8 0.00 0.00 0.00 46 1015.4
20260831211217 95 115 1.7 7.8 0.00 0.00 0.00 46 1015.5
20260831210711 94 210 1.7 5.2 0.00 0.00 0.00 46 1015.5
20260831210205 94 69 1.7 6.1 0.00 0.00 0.00 48 1015.6
20260831205931 94 136 1.7 6.1 0.00 0.00 0.00 47 1015.7
20260831205426 95 90 2.6 9.6 0.00 0.00 0.00 48 1015.8
20260831204647 95 51 2.6 9.6 0.00 0.00 0.00 48 1015.9
20260831204413 95 146 1.7 7.0 0.00 0.00 0.00 47 1015.9
20260831203635 95 142 2.6 7.8 0.00 0.00 0.00 48 1016.2
20260831203129 95 158 2.6 10.4 0.00 0.00 0.00 48 1016.2
20260831202623 96 145 2.6 8.7 0.00 0.00 0.00 48 1016.3
20260831202118 95 173 2.6 10.4 0.00 0.00 0.00 48 1016.3
20260831201612 95 98 1.7 10.4 0.00 0.00 0.00 48 1016.4
20260831201105 95 88 1.7 8.7 0.00 0.00 0.00 49 1016.4
20260831200600 95 104 1.7 7.8 0.00 0.00 0.00 48 1016.5
20260831200054 94 155 1.7 7.8 0.00 0.00 0.00 48 1016.7
20260831195548 94 94 1.7 7.0 0.00 0.00 0.00 49 1016.8
20260831195312 94 86 2.6 7.0 0.00 0.00 0.00 51 1016.9
20260831194535 94 162 2.6 9.6 0.00 0.00 0.00 51 1016.9
20260831194029 94 94 2.6 9.6 0.00 0.00 0.00 50 1017.0
20260831193523 94 181 1.7 7.0 0.00 0.00 0.00 51 1017.0
20260831193249 94 119 1.7 7.8 0.00 0.00 0.00 52 1017.1
20260831192512 94 157 1.7 8.7 0.00 0.00 0.00 51 1017.1
20260831192236 94 99 2.6 8.7 0.00 0.00 0.00 52 1017.3
20260831191459 94 157 1.7 6.1 0.00 0.00 0.00 52 1017.3
20260831190954 95 49 1.7 6.1 0.00 0.00 0.00 51 1017.3
20260831190448 94 171 1.7 5.2 0.00 0.00 0.00 50 1017.3
20260831185941 94 248 1.7 5.2 0.00 0.00 0.00 52 1017.4
20260831185707 94 194 1.7 6.1 0.00 0.00 0.00 52 1017.5
20260831184929 93 127 0.9 6.1 0.00 0.00 0.00 54 1017.6
20260831184423 93 153 1.7 7.8 0.00 0.00 0.00 53 1017.6
20260831183917 92 255 2.6 9.6 0.00 0.00 0.00 55 1017.7
20260831183411 93 158 1.7 9.6 0.00 0.00 0.00 54 1017.8
20260831183138 92 173 1.7 7.8 0.00 0.00 0.00 53 1017.8
20260831182400 92 209 1.7 7.8 0.00 0.00 0.00 54 1017.9
20260831182124 91 173 1.7 4.3 0.00 0.00 0.00 57 1017.9
20260831181348 91 88 1.7 7.0 0.00 0.00 0.00 58 1017.9
20260831180842 91 150 1.7 7.0 0.00 0.00 0.00 59 1018.1
20260831180611 91 131 1.7 7.0 0.00 0.00 0.00 58 1018.2
20260831175830 91 171 1.7 7.8 0.00 0.00 0.00 58 1018.1
20260831175324 91 203 2.6 10.4 0.00 0.00 0.00 59 1018.2
20260831174817 91 186 2.6 10.4 0.00 0.00 0.00 58 1018.4
20260831174311 90 88 2.6 7.0 0.00 0.00 0.00 61 1018.3
20260831173805 90 128 2.6 7.0 0.00 0.00 0.00 62 1018.3
20260831172753 90 213 1.7 6.1 0.00 0.00 0.00 64 1018.4
20260831171741 89 187 1.7 6.1 0.00 0.00 0.00 64 1018.4
20260831171235 89 76 1.7 6.1 0.00 0.00 0.00 64 1018.4
20260831171000 89 186 1.7 6.1 0.00 0.00 0.00 64 1018.4
20260831165717 89 241 1.7 6.1 0.00 0.00 0.00 65 1018.6
20260831165212 89 159 1.7 7.0 0.00 0.00 0.00 64 1018.6
20260831164706 89 165 1.7 7.0 0.00 0.00 0.00 65 1018.6
20260831164159 88 122 1.7 7.8 0.00 0.00 0.00 65 1018.6
20260831163924 88 155 2.6 8.7 0.00 0.00 0.00 66 1018.5
20260831163147 88 166 2.6 8.7 0.00 0.00 0.00 67 1018.6
20260831162641 88 82 1.7 7.0 0.00 0.00 0.00 68 1018.6
20260831162136 88 269 1.7 7.0 0.00 0.00 0.00 67 1018.7
20260831161629 87 113 1.7 6.1 0.00 0.00 0.00 69 1018.6
20260831161124 87 98 1.7 7.0 0.00 0.00 0.00 68 1018.6
20260831160618 87 157 1.7 7.0 0.00 0.00 0.00 69 1018.5
20260831160117 87 55 1.7 6.1 0.00 0.00 0.00 69 1018.5
20260831155849 87 188 1.7 6.1 0.00 0.00 0.00 70 1018.5
20260831155117 87 175 0.9 6.1 0.00 0.00 0.00 70 1018.5
20260831154849 86 164 0.9 6.1 0.00 0.00 0.00 72 1018.6
20260831154117 86 153 1.7 6.1 0.00 0.00 0.00 72 1018.5
20260831153847 86 163 2.6 7.8 0.00 0.00 0.00 71 1018.6
20260831153117 86 178 1.7 7.8 0.00 0.00 0.00 72 1018.4
20260831152848 86 129 0.9 5.2 0.00 0.00 0.00 73 1018.4
20260831152117 86 193 0.9 4.3 0.00 0.00 0.00 73 1018.4
20260831151617 85 144 0.9 6.1 0.00 0.00 0.00 74 1018.3
20260831151115 85 94 1.7 7.0 0.00 0.00 0.00 74 1018.4
20260831150845 85 155 1.7 7.0 0.00 0.00 0.00 74 1018.4
20260831150111 85 192 1.7 6.1 0.00 0.00 0.00 74 1018.3
20260831145611 84 159 0.9 5.2 0.00 0.00 0.00 76 1018.3
20260831145111 83 247 1.7 5.2 0.00 0.00 0.00 77 1018.3
20260831144610 83 221 1.7 6.1 0.00 0.00 0.00 78 1018.3
20260831144111 82 163 1.7 6.1 0.00 0.00 0.00 79 1018.4
20260831143610 82 169 1.7 5.2 0.00 0.00 0.00 80 1018.4
20260831143110 81 169 0.9 5.2 0.00 0.00 0.00 81 1018.3
20260831142610 81 169 0.9 5.2 0.00 0.00 0.00 81 1018.3
20260831142111 81 190 0.9 4.3 0.00 0.00 0.00 82 1018.2
20260831141609 81 172 0.9 4.3 0.00 0.00 0.00 82 1018.3
20260831141109 80 171 0.9 5.2 0.00 0.00 0.00 83 1018.2
20260831140609 80 169 0.9 5.2 0.00 0.00 0.00 84 1018.1
20260831140339 80 168 0.9 4.3 0.00 0.00 0.00 85 1017.9
20260831135840 79 155 0.9 4.3 0.00 0.00 0.00 86 1018.1
20260831135109 79 153 0.9 4.3 0.00 0.00 0.00 87 1018.1
20260831134837 79 153 0.9 5.2 0.00 0.00 0.00 87 1018.1
20260831134107 79 152 0.9 5.2 0.00 0.00 0.00 87 1018.1
20260831133835 79 152 0.9 4.3 0.00 0.00 0.00 87 1017.9
20260831133105 79 148 0.9 4.3 0.00 0.00 0.00 88 1017.9
20260831132607 79 148 0.9 3.5 0.00 0.00 0.00 88 1017.8
20260831132106 79 148 0.9 2.6 0.00 0.00 0.00 88 1017.8
20260831131602 78 148 0.0 2.6 0.00 0.00 0.00 88 1017.8
20260831131055 78 148 0.0 2.6 0.00 0.00 0.00 88 1017.8
20260831130549 78 148 0.0 2.6 0.00 0.00 0.00 89 1017.8
20260831130043 78 148 0.0 2.6 0.00 0.00 0.00 89 1017.7
20260831125537 78 148 0.0 1.7 0.00 0.00 0.00 89 1017.7
20260831125030 78 148 0.9 2.6 0.00 0.00 0.00 89 1017.6
20260831124524 78 148 0.9 2.6 0.00 0.00 0.00 89 1017.6
20260831124019 78 147 0.9 3.5 0.00 0.00 0.00 89 1017.5
20260831123513 78 213 0.9 3.5 0.00 0.00 0.00 88 1017.4
20260831123237 78 213 0.9 2.6 0.00 0.00 0.00 88 1017.4
20260831122501 78 213 0.9 2.6 0.00 0.00 0.00 88 1017.4
20260831121955 78 213 0.9 2.6 0.00 0.00 0.00 88 1017.3
20260831121449 78 213 0.9 3.5 0.00 0.00 0.00 88 1017.3
20260831120942 78 213 0.9 3.5 0.00 0.00 0.00 88 1017.4
20260831120436 78 213 0.9 3.5 0.00 0.00 0.00 88 1017.3
20260831120201 78 213 0.9 3.5 0.00 0.00 0.00 88 1017.3
20260831115425 78 213 0.9 2.6 0.00 0.00 0.00 88 1017.2
20260831114919 78 213 0.9 3.5 0.00 0.00 0.00 88 1017.3
20260831114413 78 215 0.9 3.5 0.00 0.00 0.00 88 1017.3
20260831113907 78 219 0.9 3.5 0.00 0.00 0.00 88 1017.3
20260831113401 78 221 0.0 3.5 0.00 0.00 0.00 88 1017.1
20260831112854 78 223 0.9 3.5 0.00 0.00 0.00 88 1017.2
20260831112348 78 223 0.9 3.5 0.00 0.00 0.00 87 1017.2
20260831111843 78 223 0.0 3.5 0.00 0.00 0.00 87 1017.3
20260831111609 78 224 0.9 4.3 0.00 0.00 0.00 87 1017.2
20260831110830 78 227 1.7 4.3 0.00 0.00 0.00 87 1017.3
20260831110324 78 194 0.9 4.3 0.00 0.00 0.00 87 1017.3
20260831110051 78 196 0.9 2.6 0.00 0.00 0.00 87 1017.2
20260831105312 78 196 0.9 2.6 0.00 0.00 0.00 87 1017.4
20260831104806 78 194 0.9 4.3 0.00 0.00 0.00 87 1017.3
20260831104300 78 195 1.7 6.1 0.00 0.00 0.00 86 1017.4
20260831103754 78 170 1.7 6.1 0.00 0.00 0.00 86 1017.4
20260831103249 78 222 1.7 6.1 0.00 0.00 0.00 86 1017.3
20260831102743 78 184 1.7 6.1 0.00 0.00 0.00 86 1017.4
20260831102237 78 165 1.7 6.1 0.00 0.00 0.00 86 1017.4
20260831102001 78 159 1.7 6.1 0.00 0.00 0.00 86 1017.4
20260831101225 78 192 1.7 6.1 0.00 0.00 0.00 86 1017.4
20260831100216 78 180 0.9 6.1 0.00 0.00 0.00 86 1017.4
20260831095714 78 179 1.7 6.1 0.00 0.00 0.00 86 1017.4
20260831095214 78 155 1.7 8.7 0.00 0.00 0.00 86 1017.4
20260831094714 78 169 1.7 8.7 0.00 0.00 0.00 86 1017.4
20260831094444 78 150 1.7 7.8 0.00 0.00 0.00 86 1017.4
20260831093714 78 226 1.7 7.0 0.00 0.00 0.00 86 1017.4
20260831093214 78 229 2.6 7.0 0.00 0.00 0.00 86 1017.3
20260831092714 78 194 1.7 7.8 0.00 0.00 0.00 86 1017.3
20260831092444 78 169 1.7 7.8 0.00 0.00 0.00 86 1017.3
20260831091717 78 197 1.7 7.8 0.00 0.00 0.00 86 1017.3
20260831091214 78 207 1.7 7.8 0.00 0.00 0.00 86 1017.3
20260831090714 78 162 1.7 6.1 0.00 0.00 0.00 86 1017.3
20260831090214 78 162 2.6 7.8 0.00 0.00 0.00 86 1017.3
20260831085714 78 164 1.7 7.8 0.00 0.00 0.00 86 1017.3
20260831085212 78 145 1.7 6.1 0.00 0.00 0.00 86 1017.3
20260831084710 78 225 1.7 6.1 0.00 0.00 0.00 86 1017.3
20260831084210 78 179 1.7 5.2 0.00 0.00 0.00 86 1017.4
20260831083706 78 179 1.7 5.2 0.00 0.00 0.00 86 1017.3
20260831083205 78 186 1.7 6.1 0.00 0.00 0.00 86 1017.3
20260831082705 78 233 1.7 6.1 0.00 0.00 0.00 86 1017.4
20260831082206 78 161 0.9 6.1 0.00 0.00 0.00 86 1017.4
20260831081706 78 167 0.9 6.1 0.00 0.00 0.00 86 1017.4
20260831081206 78 155 1.7 6.1 0.00 0.00 0.00 86 1017.4
20260831080706 78 274 1.7 6.1 0.00 0.00 0.00 86 1017.5
20260831080437 78 159 0.9 5.2 0.00 0.00 0.00 85 1017.4
20260831075705 78 159 0.9 5.2 0.00 0.00 0.00 85 1017.5
20260831075202 78 159 1.7 5.2 0.00 0.00 0.00 85 1017.5
20260831074702 78 159 1.7 5.2 0.00 0.00 0.00 85 1017.5
20260831074433 78 169 1.7 6.1 0.00 0.00 0.00 84 1017.5
20260831073702 78 171 1.7 6.1 0.00 0.00 0.00 84 1017.5
20260831073202 79 178 1.7 4.3 0.00 0.00 0.00 84 1017.5
20260831072933 79 168 1.7 5.2 0.00 0.00 0.00 83 1017.6
20260831072202 79 167 1.7 5.2 0.00 0.00 0.00 83 1017.6
20260831071933 79 165 1.7 5.2 0.00 0.00 0.00 83 1017.5
20260831071200 79 163 0.9 5.2 0.00 0.00 0.00 83 1017.6
20260831070701 79 164 0.9 5.2 0.00 0.00 0.00 82 1017.6
20260831070155 79 164 0.9 4.3 0.00 0.00 0.00 82 1017.5
20260831065649 79 163 0.9 8.7 0.00 0.00 0.00 82 1017.6
20260831065144 79 164 1.7 8.7 0.00 0.00 0.00 81 1017.6
20260831064638 79 153 1.7 7.0 0.00 0.00 0.00 81 1017.6
20260831064132 80 159 1.7 5.2 0.00 0.00 0.00 80 1017.6
20260831063625 80 178 1.7 5.2 0.00 0.00 0.00 80 1017.7
20260831063352 80 164 1.7 7.0 0.00 0.00 0.00 80 1017.6
20260831062613 80 159 1.7 7.0 0.00 0.00 0.00 79 1017.6
20260831062107 80 173 1.7 7.0 0.00 0.00 0.00 79 1017.5
20260831061601 80 171 0.9 7.0 0.00 0.00 0.00 79 1017.7
20260831061056 80 218 0.9 6.1 0.00 0.00 0.00 78 1017.5
20260831060044 80 144 0.9 7.0 0.00 0.00 0.00 77 1017.5
20260831055538 81 98 0.9 7.0 0.00 0.00 0.00 76 1017.5
20260831055031 81 154 1.7 5.2 0.00 0.00 0.00 76 1017.6
20260831054526 81 162 1.7 7.8 0.00 0.00 0.00 76 1017.6
20260831054250 81 157 1.7 7.8 0.00 0.00 0.00 75 1017.5
20260831053514 81 167 1.7 8.7 0.00 0.00 0.00 74 1017.4
20260831053007 82 144 2.6 8.7 0.00 0.00 0.00 73 1017.4
20260831052501 82 102 1.7 7.0 0.00 0.00 0.00 72 1017.3
20260831052227 82 158 1.7 7.8 0.00 0.00 0.00 72 1017.3
20260831051449 82 149 1.7 7.8 0.00 0.00 0.00 71 1017.2
20260831050437 82 165 0.9 5.2 0.00 0.00 0.00 69 1017.3
20260831045932 83 152 0.9 5.2 0.00 0.00 0.00 68 1017.3
20260831045430 83 151 1.7 6.1 0.00 0.00 0.00 68 1017.2
20260831044930 83 134 1.7 6.1 0.00 0.00 0.00 67 1017.1
20260831044429 83 116 1.7 8.7 0.00 0.00 0.00 67 1017.1
20260831044159 83 136 1.7 8.7 0.00 0.00 0.00 67 1017.1
20260831043427 84 159 2.6 8.7 0.00 0.00 0.00 66 1017.1
20260831042926 84 196 3.5 8.7 0.00 0.00 0.00 66 1017.2
20260831042427 84 174 2.6 8.7 0.00 0.00 0.00 66 1017.1
20260831042158 84 164 3.5 11.3 0.00 0.00 0.00 66 1017.0
20260831041426 84 168 3.5 11.3 0.00 0.00 0.00 66 1016.9
20260831041157 85 121 2.6 7.0 0.00 0.00 0.00 65 1017.0
20260831040426 85 74 1.7 7.8 0.00 0.00 0.00 64 1016.9
20260831035927 85 121 2.6 7.8 0.00 0.00 0.00 64 1016.7
20260831035427 85 144 2.6 7.0 0.00 0.00 0.00 64 1016.6
20260831034926 85 146 2.6 6.1 0.00 0.00 0.00 63 1016.6
20260831034426 85 123 1.7 7.8 0.00 0.00 0.00 63 1016.6
20260831033926 85 127 1.7 7.8 0.00 0.00 0.00 63 1016.6
20260831033427 86 128 1.7 5.2 0.00 0.00 0.00 63 1016.6
20260831032925 86 115 1.7 10.4 0.00 0.00 0.00 63 1016.5
20260831032420 86 182 2.6 10.4 0.00 0.00 0.00 63 1016.5
20260831031914 86 163 2.6 8.7 0.00 0.00 0.00 63 1016.5
20260831031407 86 125 2.6 6.1 0.00 0.00 0.00 63 1016.5
20260831030902 87 125 1.7 7.8 0.00 0.00 0.00 63 1016.3
20260831030635 87 165 1.7 7.8 0.00 0.00 0.00 63 1016.2
20260831025853 87 175 1.7 7.8 0.00 0.00 0.00 63 1016.2
20260831025353 87 176 1.7 7.8 0.00 0.00 0.00 63 1016.1
20260831024853 87 138 1.7 7.8 0.00 0.00 0.00 62 1016.0